Temp_Advection
nan nan nan nan nan nan nan nan nan nan nan nan nan nan nan nan nan nan nan nan nan nan nan nan nan nan nan nan nan nan nan nan nan nan nan nan nan nan nan nan nan nan nan nan nan nan nan
nan 0 0 0 0 0 0 0 0 0 0 0 0 0 0 0 0 0 0 0 0 0 0 0 0 -0 -0 -0 -0 -0 -0 -0 0 -0 -0 -0 -0 -0 -0 -0 -0 0 0 0 0 0 nan
nan 0 0 0 0 0 0 0 0 0 0 0 0 0 0 0 0 0 0 0 0 0 0 0 0 -0 -1 -0 -0 0 0 0 -0 -0 -0 -0 -0 -0 -0 -0 0 -0 -0 0 0 0 nan
nan 0 0 0 0 0 0 0 0 0 0 -0 0 0 0 0 0 -0 -0 0 0 -0 -0 -0 0 -0 -0 0 0 0 0 -0 0 0 0 -0 -0 -0 -0 -0 -0 -0 -0 -0 -0 0 nan
nan 0 0 -0 0 -0 -0 -0 -0 -0 -0 0 0 0 0 0 0 -0 -0 0 -0 -0 -0 -0 -0 -0 -0 0 0 -0 0 0 0 0 -0 -0 -0 -1 -1 -0 -0 -0 -0 -0 -0 -0 nan
nan 0 -0 -0 -0 -0 -0 -0 -0 -0 -0 0 0 0 0 -0 0 -0 -0 -0 0 0 0 -0 -0 -0 -0 -0 0 0 0 0 -0 -0 -0 -0 -1 -1 -0 0 0 0 0 -0 -0 -0 nan
nan -0 -0 -0 -0 -0 -0 -0 -0 -0 -0 0 0 0 0 -0 0 0 0 0 -0 -0 -1 -0 -0 -0 -0 -0 -0 0 0 -0 -0 -0 -0 -1 -1 0 0 0 -0 0 0 0 -0 -0 nan
nan -0 -0 -0 -0 -0 -0 -0 -0 -0 -0 0 0 0 -0 -0 -0 -0 -0 0 0 -0 -0 0 -0 -0 -0 -0 -0 -0 -0 -0 -0 -0 -0 -0 0 -0 0 -0 0 0 0 0 -0 -0 nan
nan 0 0 -0 -0 -0 -0 -0 -0 -0 0 0 0 -0 -0 -0 -0 -0 -0 0 0 -0 -0 -0 -0 -0 0 -0 -0 -0 -0 -0 -0 -0 -0 0 -0 0 -0 -0 -0 -0 0 0 0 -0 nan
nan 0 0 -0 -0 -0 -0 -0 -0 -0 -0 -0 -0 -0 -0 -0 -0 -0 -0 0 0 -0 -0 -0 -0 0 0 0 -0 -0 -0 -0 -0 -0 0 -0 -0 -0 -0 -0 -0 -0 0 0 0 -0 nan
nan -0 -0 -0 -0 -0 -0 -0 -0 -0 -0 -0 -0 -0 -0 -0 -0 -0 -0 0 0 -0 -0 -0 -0 -0 -0 -0 0 -0 0 -0 -0 0 0 0 -0 -0 -0 0 -0 0 -0 -0 0 0 nan
nan -0 -0 0 -0 -0 0 -0 -0 0 -0 -0 -0 -0 -0 -0 -0 -0 0 0 0 -1 -0 -0 -0 -0 -0 -0 -0 -0 -0 -0 -0 -0 -0 -0 -0 0 0 0 0 -0 -0 -0 -0 0 nan
nan -0 0 0 -0 -0 -0 -0 -0 -0 -0 -0 0 0 -0 -0 -0 0 -0 -0 -0 0 0 0 -0 -0 -0 -0 -0 -0 -0 -0 -0 -0 -0 -0 -0 0 -0 0 -0 -0 -0 -0 0 0 nan
nan -0 -0 0 -0 -0 -0 -0 -0 -0 -0 -0 -0 0 0 -0 0 -0 -0 -0 0 -0 0 0 0 0 0 0 -0 -0 -0 -0 0 -0 0 0 -0 0 -0 -0 0 0 -0 0 -0 0 nan
nan -0 -0 -0 -0 -0 -0 -0 -0 -0 -0 -0 -0 0 0 0 -0 -0 0 -0 0 0 0 -0 -0 0 -0 -0 -0 -0 -0 -0 -0 0 -0 0 -0 -0 -0 -0 -0 0 -0 -0 0 0 nan
nan -0 -0 -0 -0 -0 -0 -0 -0 -0 -0 -0 -0 -0 -0 0 0 0 -0 0 0 -0 0 0 0 0 0 0 -0 -0 -0 -0 -0 -0 -0 -0 -0 -0 0 -0 -0 0 -0 -0 -0 -0 nan
nan -0 -0 0 -0 -0 -0 -1 -0 -0 -0 -0 -0 -0 -0 -0 -0 -0 -0 -0 -0 0 0 0 0 0 0 0 0 -0 -0 0 -0 -0 -0 -0 0 -0 -0 0 0 -0 0 0 -0 0 nan
nan -0 -0 0 0 -0 -0 -0 -1 -1 -0 -0 -0 -0 -0 -0 -0 -0 0 -0 -0 0 0 0 0 0 0 0 0 0 0 -0 -0 0 0 0 0 -0 -0 -0 0 -0 0 -0 -0 -0 nan
nan -0 -0 -0 -0 -0 -0 -0 -0 -1 -1 -0 -0 -0 -0 0 -0 0 -0 -0 0 0 0 0 -0 0 0 0 0 0 -0 0 0 -0 -0 -0 0 -0 -0 -0 -0 0 0 -0 -0 0 nan
nan 0 -0 -0 -0 -0 -0 -0 -0 -0 -0 -0 0 -0 -0 0 -0 -0 -0 -0 0 -0 0 0 0 0 0 0 -0 -0 0 0 0 0 -0 -0 0 0 -0 -0 0 -0 -0 -0 0 0 nan
nan -0 -0 -0 -0 -0 -0 -0 0 -0 -0 -0 0 0 0 -0 -0 -0 0 0 0 0 0 0 0 0 0 0 0 0 -0 0 0 0 1 0 0 -0 -1 -0 -0 -0 0 1 0 -0 nan
nan -0 -0 -0 -0 -0 -1 -0 0 -0 -0 -0 0 -0 -0 -0 -0 0 0 0 -0 0 -0 -0 -0 0 0 -0 -0 -0 -0 0 0 0 0 0 -0 0 -0 -0 0 -0 -0 0 0 0 nan
nan 0 -0 -0 -0 -0 -1 -1 -0 0 0 0 0 -0 -0 0 0 0 -0 -0 -0 0 -0 -0 0 0 -0 -1 -1 0 0 0 1 -0 -0 0 0 0 -0 -0 0 -0 -0 0 0 0 nan
nan -0 -0 -0 -0 0 -0 -0 -0 -0 0 1 0 0 0 0 0 -0 -0 0 -0 -0 -0 0 0 -0 -0 0 0 0 1 1 1 -0 1 -0 -0 -0 -0 -0 -0 -0 0 0 0 0 nan
nan -0 -0 -0 0 0 0 -0 -0 0 0 0 0 0 0 0 -0 -0 -0 -0 -0 0 0 -0 -0 0 0 0 -0 -0 -0 0 0 0 0 -1 0 0 0 -0 -1 0 0 0 0 0 nan
nan -0 -0 -0 -0 0 -0 0 0 -0 -0 0 1 0 0 -0 -0 -1 -0 0 0 0 -0 -0 0 0 1 0 0 -0 -0 0 0 0 -0 0 -0 0 -0 -0 -0 0 0 0 0 1 nan
nan -0 -0 -0 -0 -0 0 0 -0 0 -0 0 0 0 0 -0 -1 -0 0 -0 -0 0 0 0 0 0 1 0 0 0 0 0 0 0 -0 -0 0 -0 -0 0 0 -0 0 0 0 0 nan
nan -0 -0 -0 -0 -0 0 0 0 0 0 -0 -0 1 1 -0 -1 -1 -0 -0 -0 0 0 0 0 0 0 0 0 0 0 0 0 0 -0 -0 -0 -0 -0 -0 0 -0 0 0 -0 0 nan
nan nan nan nan nan nan nan nan nan nan nan nan nan nan nan nan nan nan nan nan nan nan nan nan nan nan nan nan nan nan nan nan nan nan nan nan nan nan nan nan nan nan nan nan nan nan nan
Wind_Speed
11 12 13 16 18 19 21 23 22 20 19 18 17 19 19 15 13 11 11 11 12 13 12 13 8 5 6 10 8 12 10 9 8 8 12 7 12 5 3 3 4 4 2 2 3 1 1
11 13 15 18 18 20 22 23 22 20 20 18 17 17 18 13 13 12 11 12 13 13 12 9 6 6 6 7 11 14 10 8 8 9 11 11 7 5 5 4 4 1 2 3 4 3 4
12 14 16 18 20 22 22 23 22 20 19 18 16 17 18 11 9 9 10 11 12 12 11 9 10 9 17 9 14 14 10 9 9 9 8 9 10 3 2 2 2 2 1 2 6 4 3
12 15 16 18 21 23 23 22 21 20 18 17 16 15 15 12 9 10 11 13 12 10 7 5 4 5 6 12 17 14 9 9 7 8 7 6 6 8 4 2 3 4 4 5 2 6 2
12 15 17 20 23 25 24 22 21 19 17 17 16 14 12 10 8 9 10 10 9 8 7 4 4 3 3 7 15 18 10 9 7 6 6 5 4 6 6 3 4 6 2 3 8 9 3
11 15 18 21 24 25 25 23 21 18 17 16 16 14 9 11 4 7 8 8 7 2 0 3 5 2 7 8 11 18 7 7 5 6 3 5 5 4 5 5 1 3 4 4 4 1 2
12 15 18 21 24 26 25 23 21 18 17 17 16 14 10 8 5 5 7 1 1 3 15 9 7 4 6 7 9 18 10 3 5 5 3 5 7 2 3 1 2 4 3 4 4 3 6
12 15 17 20 24 27 25 22 20 18 17 17 17 15 11 4 8 2 7 3 1 7 8 7 7 6 7 7 5 20 12 4 6 3 4 6 2 3 4 2 2 3 2 4 6 3 1
11 13 17 19 23 25 25 22 19 17 17 17 17 14 12 4 7 5 3 5 10 6 3 3 6 6 7 5 5 14 15 4 5 5 4 4 2 3 1 3 6 4 2 3 5 6 2
9 11 15 18 20 23 25 22 18 16 16 17 17 14 11 7 4 7 3 8 8 2 4 6 5 5 7 5 2 12 12 5 5 1 1 1 2 3 2 1 2 4 3 4 6 4 3
9 12 13 17 20 21 23 22 18 16 16 16 16 13 11 9 6 5 2 8 5 2 3 2 4 5 4 4 5 11 7 4 1 3 2 3 3 3 2 2 2 7 4 5 2 2 3
10 12 14 15 19 21 22 21 18 15 15 16 15 12 11 12 7 5 4 8 5 5 3 4 4 6 3 5 4 7 6 5 1 1 2 1 1 1 2 4 2 6 4 4 3 3 2
11 13 14 16 19 22 23 22 18 16 15 15 15 12 9 12 8 4 6 5 5 4 2 4 3 3 2 3 5 4 4 7 4 5 7 6 1 1 2 4 4 8 5 3 5 4 4
12 13 14 15 17 22 22 22 20 16 15 15 15 12 6 10 7 3 4 4 2 1 2 1 2 4 1 3 2 6 2 4 4 4 3 4 7 2 3 1 2 3 3 3 4 3 5
15 13 16 16 17 20 21 21 21 18 16 15 15 12 3 9 6 2 2 4 6 5 2 1 1 1 3 2 1 5 2 3 1 1 3 4 5 2 1 1 2 2 2 3 1 1 1
15 18 19 17 17 18 20 21 20 18 17 16 15 11 3 10 6 2 3 4 3 1 1 1 2 1 1 3 3 4 1 3 3 2 2 2 5 2 1 1 2 1 2 1 2 3 5
20 20 20 20 18 19 20 21 21 19 16 16 14 6 3 10 5 2 3 4 3 3 2 2 3 1 1 2 1 2 2 2 5 4 3 4 3 5 1 3 3 1 1 1 2 4 3
22 23 23 18 21 23 22 21 20 18 15 13 8 4 5 7 1 3 2 2 3 4 3 2 3 3 4 3 3 3 5 5 8 6 2 2 3 4 9 2 3 3 4 4 3 3 4
16 20 21 19 20 20 23 21 19 17 14 14 11 5 4 4 2 1 2 1 4 5 4 4 4 4 3 4 3 5 4 3 11 8 7 5 2 4 6 3 2 4 5 5 3 3 10
19 18 18 20 22 22 21 20 18 16 12 10 6 3 2 2 2 5 4 4 3 5 3 4 3 3 2 3 4 3 3 4 10 8 7 8 4 7 7 7 4 8 10 7 9 5 9
16 16 17 16 16 18 20 19 16 14 11 6 3 3 2 3 2 2 4 5 4 4 6 7 2 7 7 4 3 5 4 3 5 6 9 5 6 6 12 12 11 17 20 16 13 18 14
26 22 18 18 16 16 17 19 16 13 11 8 3 3 2 4 4 2 2 5 7 3 8 5 5 5 8 7 9 7 5 4 7 2 6 3 5 2 5 12 16 20 21 20 19 19 17
19 22 23 23 21 18 16 16 15 13 10 6 6 7 4 4 2 3 4 5 5 5 9 7 13 4 6 16 22 19 16 12 12 8 8 6 4 2 7 2 6 13 16 17 5 6 7
20 21 20 22 21 19 18 17 13 13 14 14 10 6 3 4 4 5 3 5 5 10 4 3 11 7 5 5 7 12 16 23 22 21 19 6 5 3 5 2 8 6 2 5 9 2 2
23 21 21 21 21 20 20 17 17 14 14 15 15 11 5 4 8 10 12 10 11 11 7 11 14 12 10 2 2 5 3 5 5 4 8 19 8 5 4 6 12 11 4 4 6 4 1
24 23 22 21 21 18 18 18 17 16 17 16 16 16 10 3 7 18 5 7 5 4 4 7 10 11 10 5 3 4 5 4 5 3 2 2 11 8 4 5 7 2 2 2 3 5 7
22 22 23 23 23 20 17 16 17 17 18 18 19 15 13 9 18 17 7 4 3 3 2 2 3 5 10 3 5 6 7 6 5 5 4 3 3 13 14 9 6 1 5 2 3 1 4
22 22 22 23 24 23 22 20 19 19 18 20 22 19 18 10 19 21 11 8 10 6 3 2 2 6 3 3 4 4 5 6 3 4 6 8 6 4 4 6 8 2 3 4 2 4 3
23 23 23 23 22 22 25 25 24 21 21 21 24 21 21 27 15 12 16 22 28 27 15 8 6 3 11 3 3 2 3 2 3 4 2 4 6 3 7 4 1 1 0 4 3 3 3
Wind_Direction
65 52 40 29 19 14 12 11 12 13 13 15 19 20 25 47 69 84 92 93 97 103 107 111 105 80 53 61 31 16 12 23 25 38 46 60 58 59 72 80 72 70 130 121 160 152 236
59 44 35 23 20 15 12 11 12 13 12 15 19 22 29 48 65 82 93 99 103 103 107 97 80 78 54 70 17 8 12 27 44 51 51 58 49 71 76 58 77 63 180 192 213 218 251
50 38 31 24 20 16 13 11 13 14 16 18 18 24 29 44 63 80 94 106 107 103 105 103 100 79 60 50 24 16 15 33 49 52 53 54 54 111 88 67 68 99 36 290 229 207 252
44 34 28 22 18 14 13 12 14 16 20 20 20 24 31 46 73 84 95 105 113 103 93 92 84 75 81 45 28 21 32 39 52 54 57 52 55 68 36 68 43 32 47 2 315 167 227
42 33 28 22 17 14 12 12 15 19 22 23 24 25 31 46 74 93 109 104 111 103 80 85 53 82 57 11 14 21 26 40 57 42 50 47 60 49 25 62 26 11 311 301 324 198 112
33 30 27 22 17 13 13 13 15 19 22 22 21 23 29 34 76 113 113 105 95 7 169 65 41 66 29 356 8 14 10 26 18 25 75 39 56 64 22 50 41 301 327 307 271 295 223
34 32 28 23 18 15 14 13 16 19 19 18 16 16 22 29 52 146 140 109 316 69 67 68 46 38 359 5 29 16 21 36 23 45 29 28 60 29 296 323 222 247 232 264 265 231 338
35 32 27 22 18 16 13 15 15 19 18 16 14 13 13 22 26 9 238 254 192 134 79 58 48 31 17 10 6 16 25 55 37 32 2 29 36 268 293 349 236 306 302 296 295 273 295
34 28 23 18 14 12 12 13 14 15 16 14 13 14 16 23 20 15 62 171 145 129 83 20 14 6 11 1 25 6 15 32 43 34 17 130 247 303 19 16 6 318 243 278 256 315 234
26 22 19 13 10 9 9 10 11 11 12 13 12 14 21 7 351 5 73 149 153 136 78 315 350 4 356 350 19 11 14 27 30 40 293 196 334 354 342 60 81 311 210 280 294 35 295
10 7 8 5 6 4 6 6 6 6 6 7 8 8 14 17 353 360 360 179 168 136 42 326 329 342 8 37 325 14 6 11 73 305 79 276 349 3 348 280 140 245 329 288 245 147 36
351 355 354 359 360 358 359 1 1 1 0 359 0 0 5 5 6 15 113 145 140 46 266 339 343 358 14 11 357 339 356 20 359 350 339 283 351 129 260 298 235 307 347 55 48 88 18
325 329 342 348 355 356 354 356 356 355 355 354 353 352 353 4 7 29 131 133 39 101 346 332 321 1 314 321 331 37 45 14 36 17 5 333 299 324 350 336 18 15 23 352 1 7 231
299 315 318 337 345 348 351 350 350 350 349 349 347 346 346 3 13 72 151 60 104 170 233 270 260 325 347 357 313 344 71 21 27 55 35 20 332 15 359 91 297 339 109 126 292 286 286
292 302 315 331 337 341 345 347 347 343 343 344 342 344 338 359 8 39 166 68 191 205 193 292 336 54 314 357 344 22 42 175 212 53 64 15 281 287 48 43 96 331 55 172 205 292 346
285 296 304 317 322 330 336 340 341 341 337 340 340 338 336 353 345 350 84 201 204 221 170 148 194 189 311 303 5 26 218 182 196 173 140 180 295 239 247 78 30 164 170 355 34 309 290
283 287 296 309 312 319 324 332 333 336 335 336 337 333 328 344 335 337 144 207 178 178 188 189 204 233 238 283 267 271 246 204 192 189 157 158 159 284 8 197 193 12 290 189 139 159 237
270 279 285 287 301 307 313 320 326 328 334 333 334 326 318 336 4 42 119 184 160 184 195 210 172 189 204 217 245 249 228 217 181 166 194 186 169 264 246 286 242 210 210 151 139 247 232
280 279 277 280 288 297 305 309 314 321 330 338 324 280 286 324 158 230 224 229 210 171 213 190 224 209 199 220 248 213 234 199 177 166 176 181 229 310 333 4 288 217 196 194 223 186 226
266 263 273 282 287 293 296 300 304 310 317 327 311 336 255 262 168 146 177 222 226 216 224 202 205 172 169 245 235 275 244 222 207 212 205 170 208 192 226 234 197 257 248 217 226 238 260
263 270 272 278 289 295 298 294 293 300 299 309 268 269 285 291 283 217 179 184 189 227 216 201 229 214 183 213 228 225 235 254 211 214 182 174 235 231 249 264 266 266 268 253 232 242 239
258 263 267 275 284 294 300 294 289 290 287 274 264 296 299 278 272 243 229 227 210 217 160 233 214 215 197 209 200 214 197 199 221 151 168 203 261 229 264 250 255 264 264 259 249 249 249
269 267 270 272 274 278 284 286 284 282 279 261 244 254 260 256 222 127 224 226 241 187 229 216 213 184 208 236 248 262 267 256 245 178 191 185 209 173 275 194 304 277 251 240 200 219 210
264 267 272 273 277 277 274 270 264 266 262 251 248 246 227 270 210 210 240 211 236 229 247 247 219 177 235 244 289 276 262 263 252 239 213 184 176 182 273 11 267 242 245 191 205 193 80
266 267 266 271 272 277 278 276 270 260 254 250 251 240 241 258 248 272 260 256 275 267 243 246 248 242 249 257 341 316 300 320 243 225 215 221 198 228 231 215 285 296 263 170 171 220 137
263 263 265 266 268 267 276 279 270 265 257 251 253 244 236 250 240 256 270 254 214 229 299 231 242 238 213 177 166 227 238 219 278 275 40 176 231 209 181 228 240 226 161 108 134 262 158
264 265 265 264 262 265 265 272 271 265 261 257 253 248 232 246 254 257 238 236 227 217 220 218 217 206 207 200 216 216 246 199 227 212 183 166 196 219 232 244 261 105 138 87 139 298 155
268 265 261 260 264 262 262 268 268 265 260 257 259 246 226 254 259 258 260 254 253 246 235 219 338 216 186 216 223 213 219 217 208 215 186 177 187 210 225 246 264 111 115 190 108 145 189
269 270 268 264 261 260 259 259 257 255 253 251 253 247 235 241 255 243 263 252 253 260 262 232 246 282 223 193 231 284 235 244 212 251 170 244 199 190 204 223 135 359 85 214 205 147 305
Height
1588 1586 1585 1582 1579 1576 1572 1568 1565 1561 1558 1555 1552 1549 1546 1543 1542 1541 1541 1542 1542 1542 1543 1543 1544 1544 1543 1543 1545 1543 1541 1539 1538 1537 1534 1533 1532 1533 1536 1536 1537 1539 1541 1541 1542 1543 1543
1589 1588 1585 1583 1580 1577 1573 1569 1565 1562 1559 1556 1554 1551 1548 1546 1544 1544 1543 1544 1544 1545 1545 1545 1545 1545 1544 1546 1546 1543 1541 1540 1538 1537 1536 1535 1535 1535 1536 1538 1539 1541 1541 1541 1542 1542 1541
1590 1589 1586 1584 1581 1578 1574 1570 1567 1563 1560 1557 1555 1552 1549 1548 1547 1546 1546 1546 1546 1547 1547 1547 1547 1546 1546 1550 1547 1544 1542 1541 1539 1538 1538 1537 1536 1536 1538 1539 1540 1541 1542 1541 1540 1541 1540
1591 1590 1588 1585 1582 1579 1575 1571 1567 1564 1561 1559 1556 1554 1552 1550 1549 1548 1548 1548 1548 1548 1549 1548 1547 1547 1548 1548 1547 1545 1543 1541 1540 1540 1539 1539 1539 1538 1539 1540 1541 1543 1545 1550 1540 1540 1540
1592 1591 1589 1587 1583 1579 1575 1572 1568 1565 1563 1560 1557 1555 1554 1552 1551 1550 1550 1550 1550 1550 1549 1549 1549 1547 1550 1550 1548 1546 1544 1542 1541 1541 1540 1540 1540 1541 1541 1545 1552 1553 1555 1550 1546 1540 1541
1594 1592 1590 1587 1584 1580 1576 1573 1570 1567 1564 1562 1559 1557 1554 1553 1553 1552 1552 1551 1551 1551 1550 1550 1550 1552 1551 1552 1549 1547 1545 1543 1541 1540 1541 1541 1541 1547 1549 1552 1564 1558 1556 1552 1550 1542 1542
1594 1593 1591 1588 1585 1581 1577 1574 1571 1569 1566 1564 1561 1558 1556 1554 1554 1553 1553 1553 1555 1554 1551 1553 1554 1553 1553 1552 1550 1547 1544 1543 1542 1542 1545 1543 1552 1557 1553 1551 1550 1551 1553 1552 1544 1539 1541
1595 1594 1592 1589 1586 1582 1579 1575 1572 1570 1567 1565 1562 1559 1556 1555 1554 1553 1553 1553 1553 1555 1556 1556 1556 1555 1553 1552 1550 1548 1545 1545 1544 1548 1545 1550 1555 1551 1550 1549 1549 1549 1549 1549 1545 1539 1541
1596 1594 1593 1590 1587 1584 1580 1576 1573 1571 1568 1565 1563 1560 1557 1555 1555 1554 1552 1553 1553 1554 1556 1558 1557 1556 1555 1554 1552 1550 1548 1547 1548 1550 1551 1553 1550 1549 1549 1550 1551 1550 1549 1549 1551 1543 1538
1596 1595 1593 1591 1588 1584 1581 1577 1574 1572 1569 1566 1563 1561 1558 1556 1557 1553 1553 1553 1554 1554 1563 1562 1558 1558 1556 1554 1554 1552 1550 1550 1549 1552 1551 1552 1550 1549 1549 1549 1551 1554 1545 1546 1548 1549 1551
1597 1595 1593 1591 1588 1585 1582 1578 1575 1572 1569 1567 1564 1561 1559 1557 1556 1554 1554 1553 1555 1557 1588 1562 1559 1558 1556 1556 1556 1553 1551 1549 1551 1552 1553 1553 1551 1551 1551 1549 1549 1549 1544 1546 1544 1548 1550
1596 1595 1593 1591 1588 1585 1582 1578 1575 1572 1569 1566 1564 1561 1559 1558 1555 1554 1553 1554 1557 1570 1590 1563 1560 1559 1557 1556 1555 1553 1552 1551 1551 1551 1551 1551 1551 1551 1550 1548 1548 1546 1543 1545 1549 1553 1556
1596 1594 1593 1591 1588 1585 1581 1578 1575 1572 1569 1566 1563 1561 1559 1557 1556 1554 1555 1557 1569 1578 1564 1567 1563 1560 1560 1559 1555 1555 1557 1560 1563 1560 1564 1556 1551 1550 1550 1551 1548 1549 1553 1560 1558 1559 1551
1594 1593 1591 1590 1587 1584 1581 1578 1575 1571 1568 1566 1563 1561 1559 1558 1556 1555 1556 1558 1564 1565 1565 1562 1561 1561 1561 1560 1557 1557 1559 1565 1562 1563 1571 1572 1564 1552 1551 1552 1554 1554 1557 1568 1560 1564 1557
1592 1591 1590 1588 1586 1583 1580 1577 1574 1570 1567 1564 1562 1560 1559 1558 1556 1555 1556 1570 1566 1564 1562 1563 1562 1563 1563 1560 1562 1560 1561 1566 1564 1563 1567 1573 1562 1551 1550 1551 1553 1552 1559 1555 1562 1563 1569
1589 1589 1588 1586 1583 1581 1579 1576 1573 1569 1566 1563 1561 1559 1559 1557 1556 1555 1556 1564 1564 1562 1563 1564 1564 1563 1565 1564 1563 1564 1562 1561 1562 1562 1561 1565 1571 1551 1550 1551 1552 1551 1554 1559 1567 1557 1556
1586 1586 1585 1584 1582 1580 1577 1575 1572 1569 1566 1563 1561 1558 1558 1557 1555 1555 1561 1563 1561 1561 1562 1564 1564 1565 1564 1564 1564 1563 1561 1560 1559 1560 1560 1562 1568 1556 1551 1552 1552 1556 1556 1556 1560 1565 1560
1582 1582 1581 1580 1579 1577 1575 1573 1570 1567 1566 1564 1561 1561 1558 1556 1557 1559 1562 1559 1560 1560 1561 1561 1561 1561 1563 1562 1563 1561 1559 1556 1556 1557 1560 1561 1568 1571 1555 1549 1548 1547 1549 1553 1558 1552 1553
1578 1578 1578 1577 1576 1575 1573 1571 1568 1566 1564 1563 1561 1558 1556 1556 1559 1561 1559 1559 1559 1559 1559 1560 1560 1560 1560 1561 1563 1559 1555 1552 1553 1555 1558 1558 1564 1569 1554 1552 1547 1545 1543 1543 1545 1547 1542
1574 1574 1574 1574 1573 1571 1570 1568 1566 1565 1564 1564 1563 1559 1555 1554 1554 1554 1557 1557 1557 1556 1556 1556 1557 1557 1559 1560 1559 1557 1554 1551 1551 1552 1553 1554 1560 1555 1555 1546 1546 1547 1540 1538 1537 1545 1531
1569 1569 1569 1569 1568 1568 1566 1565 1563 1563 1562 1564 1562 1559 1558 1557 1554 1554 1554 1553 1554 1555 1554 1554 1556 1555 1556 1559 1556 1557 1552 1550 1549 1549 1552 1554 1559 1555 1545 1541 1539 1535 1531 1530 1533 1525 1530
1563 1564 1564 1565 1564 1564 1563 1563 1560 1560 1560 1563 1560 1560 1558 1555 1554 1554 1554 1552 1552 1550 1552 1553 1553 1548 1552 1553 1547 1548 1547 1548 1547 1548 1550 1550 1550 1547 1545 1539 1535 1529 1522 1519 1519 1516 1513
1557 1558 1559 1559 1559 1559 1558 1558 1557 1556 1558 1560 1558 1557 1557 1553 1552 1554 1552 1546 1546 1547 1544 1543 1544 1547 1548 1543 1543 1542 1542 1542 1541 1542 1547 1548 1547 1548 1528 1530 1531 1520 1501 1501 1505 1506 1503
1551 1552 1553 1554 1555 1555 1555 1553 1551 1551 1552 1557 1558 1558 1557 1554 1552 1549 1546 1544 1544 1544 1545 1542 1542 1543 1541 1540 1540 1539 1537 1534 1534 1531 1532 1537 1542 1544 1533 1530 1523 1494 1495 1495 1499 1499 1501
1545 1546 1548 1548 1549 1550 1550 1548 1548 1547 1548 1550 1553 1556 1554 1551 1547 1543 1543 1543 1541 1541 1542 1541 1540 1540 1539 1539 1541 1540 1534 1530 1522 1523 1525 1526 1531 1533 1530 1522 1500 1488 1485 1490 1493 1496 1499
1539 1540 1541 1542 1543 1544 1544 1544 1544 1544 1544 1545 1548 1551 1552 1549 1543 1542 1540 1538 1538 1538 1537 1534 1535 1535 1537 1537 1540 1539 1531 1524 1523 1520 1524 1523 1524 1525 1525 1516 1505 1487 1491 1489 1490 1492 1497
1532 1533 1535 1537 1538 1538 1537 1538 1540 1540 1540 1541 1541 1545 1547 1543 1539 1539 1538 1535 1534 1534 1533 1532 1531 1534 1536 1534 1534 1529 1525 1520 1519 1516 1521 1524 1522 1515 1507 1497 1492 1488 1489 1490 1494 1495 1498
1526 1527 1528 1529 1531 1532 1532 1533 1533 1534 1534 1534 1536 1538 1542 1537 1533 1535 1533 1533 1532 1531 1531 1531 1533 1528 1531 1532 1527 1520 1517 1512 1509 1504 1508 1510 1515 1512 1505 1497 1490 1488 1489 1492 1492 1492 1495
1519 1520 1523 1523 1522 1524 1525 1526 1527 1528 1528 1528 1531 1532 1535 1535 1527 1525 1525 1526 1528 1529 1530 1527 1525 1524 1518 1519 1519 1515 1512 1511 1506 1499 1496 1501 1491 1494 1498 1490 1490 1489 1489 1489 1489 1489 1493